EW7966 Weather Reports


time (UTC)temp
C
wind
direction
speed
KPH
gust
KPH
rain 1hr
cm
rain 24hr
cm
rain mn
cm
humidity
%
barometer
mb
20260504002505 17 53 8.0 20.9 0.00 0.00 0.00 21 1011.2
20260504001505 18 14 4.8 9.7 0.00 0.00 0.00 21 1011.3
20260504001503 18 14 4.8 9.7 0.00 0.00 0.00 21 1002.2
20260504001005 18 16 3.2 6.4 0.00 0.00 0.00 20 1011.2
20260504000006 18 16 3.2 6.4 0.00 0.00 0.00 19 1011.2
20260504000004 18 16 3.2 6.4 0.00 0.00 0.00 19 1002.2
20260503235505 18 16 1.6 6.4 0.00 0.00 0.00 19 1011.2
20260503235006 18 17 1.6 8.0 0.00 0.00 0.00 18 1011.2
20260503234505 18 17 1.6 8.0 0.00 0.00 0.00 17 1002.2
20260503234006 18 311 4.8 8.0 0.00 0.00 0.00 17 1011.3
20260503233505 18 300 1.6 6.4 0.00 0.00 0.00 18 1011.2
20260503233007 19 304 1.6 4.8 0.00 0.00 0.00 18 1011.2
20260503233002 19 304 1.6 4.8 0.00 0.00 0.00 18 1002.1
20260503232505 19 316 0.0 11.3 0.00 0.00 0.00 18 1011.2
20260503231504 19 338 4.8 19.3 0.00 0.00 0.00 16 1011.2
20260503231005 20 338 6.4 19.3 0.00 0.00 0.00 17 1011.2
20260503230506 19 355 3.2 12.9 0.00 0.00 0.00 18 1011.2
20260503230007 19 61 6.4 12.9 0.00 0.00 0.00 17 1011.3
20260503230005 19 61 4.8 12.9 0.00 0.00 0.00 17 1002.2
20260503225505 19 5 3.2 17.7 0.00 0.00 0.00 17 1011.2
20260503225006 20 37 11.3 24.1 0.00 0.00 0.00 16 1011.2
20260503224507 20 19 3.2 20.9 0.00 0.00 0.00 17 1002.2
20260503224505 20 19 4.8 20.9 0.00 0.00 0.00 17 1011.3
20260503224007 20 17 6.4 16.1 0.00 0.00 0.00 15 1011.3
20260503223505 20 24 4.8 16.1 0.00 0.00 0.00 17 1011.4
20260503223005 20 5 4.8 9.7 0.00 0.00 0.00 17 1011.4
20260503223002 20 5 4.8 9.7 0.00 0.00 0.00 17 1002.3
20260503222506 20 38 4.8 8.0 0.00 0.00 0.00 16 1011.4
20260503222005 20 150 1.6 14.5 0.00 0.00 0.00 16 1011.4
20260503221505 20 301 8.0 14.5 0.00 0.00 0.00 15 1011.5
20260503221503 20 301 6.4 14.5 0.00 0.00 0.00 15 1002.5
20260503221005 20 317 8.0 14.5 0.00 0.00 0.00 17 1011.6
20260503220507 20 297 3.2 14.5 0.00 0.00 0.00 14 1011.6
20260503220005 20 223 8.0 14.5 0.00 0.00 0.00 16 1011.8
20260503220001 20 223 8.0 14.5 0.00 0.00 0.00 16 1002.8
20260503215505 20 277 8.0 14.5 0.00 0.00 0.00 15 1011.8
20260503215005 19 212 9.7 14.5 0.00 0.00 0.00 15 1011.9
20260503214504 19 117 1.6 16.1 0.00 0.00 0.00 15 1012.0
20260503214006 20 135 8.0 16.1 0.00 0.00 0.00 15 1012.1
20260503213505 20 220 4.8 14.5 0.00 0.00 0.00 15 1012.1
20260503213005 19 244 8.0 17.7 0.00 0.00 0.00 15 1012.4
20260503213003 19 244 6.4 17.7 0.00 0.00 0.00 15 1003.5
20260503212508 20 303 8.0 17.7 0.00 0.00 0.00 14 1012.4
20260503212005 20 306 4.8 14.5 0.00 0.00 0.00 15 1012.5
20260503211559 20 217 3.2 16.1 0.00 0.00 0.00 16 1003.7
20260503211506 20 300 3.2 16.1 0.00 0.00 0.00 15 1012.6
20260503211504 20 300 1.6 16.1 0.00 0.00 0.00 15 1003.7
20260503211006 20 5 6.4 16.1 0.00 0.00 0.00 18 1012.7
20260503210505 19 355 6.4 17.7 0.00 0.00 0.00 17 1012.8
20260503210005 19 326 8.0 17.7 0.00 0.00 0.00 14 1004.0
20260503205506 19 355 4.8 16.1 0.00 0.00 0.00 18 1013.0
20260503204505 18 300 8.0 19.3 0.00 0.00 0.00 16 1013.2
20260503204005 19 350 6.4 17.7 0.00 0.00 0.00 16 1013.3
20260503203505 19 21 6.4 17.7 0.00 0.00 0.00 13 1013.3
20260503203005 20 10 6.4 8.0 0.00 0.00 0.00 15 1013.4
20260503203002 20 10 4.8 8.0 0.00 0.00 0.00 15 1004.6
20260503202504 19 202 1.6 12.9 0.00 0.00 0.00 15 1013.5
20260503201506 19 28 6.4 20.9 0.00 0.00 0.00 16 1013.7
20260503201504 19 28 6.4 20.9 0.00 0.00 0.00 16 1004.9
20260503200505 18 326 9.7 16.1 0.00 0.00 0.00 15 1013.9
20260503200007 19 288 9.7 16.1 0.00 0.00 0.00 15 1014.0
20260503195505 19 267 11.3 17.7 0.00 0.00 0.00 15 1014.1
20260503195006 18 302 9.7 20.9 0.00 0.00 0.00 16 1014.2
20260503194504 18 302 9.7 24.1 0.00 0.00 0.00 17 1014.2
20260503194006 18 304 11.3 24.1 0.00 0.00 0.00 16 1014.3
20260503193505 18 302 9.7 29.0 0.00 0.00 0.00 16 1014.3
20260503193002 18 5 14.5 29.0 0.00 0.00 0.00 17 1005.7
20260503192005 18 345 11.3 20.9 0.00 0.00 0.00 18 1014.4
20260503191505 18 15 8.0 16.1 0.00 0.00 0.00 15 1014.5
20260503191503 18 15 6.4 16.1 0.00 0.00 0.00 15 1005.9
20260503191006 18 28 3.2 17.7 0.00 0.00 0.00 17 1014.6
20260503190500 18 338 11.3 24.1 0.00 0.00 0.00 17 1014.7
20260503190004 18 326 8.0 24.1 0.00 0.00 0.00 18 1006.2
20260503185506 18 330 8.0 20.9 0.00 0.00 0.00 16 1014.8
20260503185006 18 350 4.8 19.3 0.00 0.00 0.00 16 1014.8
20260503184505 17 272 9.7 24.1 0.00 0.00 0.00 18 1006.4
20260503184005 17 269 12.9 24.1 0.00 0.00 0.00 20 1015.0
20260503183504 17 303 11.3 22.5 0.00 0.00 0.00 18 1015.2
20260503183003 17 316 8.0 29.0 0.00 0.00 0.00 18 1006.7
20260503182506 17 290 14.5 29.0 0.00 0.00 0.00 18 1015.2
20260503182006 17 317 11.3 20.9 0.00 0.00 0.00 19 1015.3
20260503181505 17 301 9.7 25.7 0.00 0.00 0.00 18 1015.4
20260503181503 17 301 8.0 25.7 0.00 0.00 0.00 18 1007.0
20260503181006 17 288 17.7 30.6 0.00 0.00 0.00 19 1015.5
20260503180505 17 296 20.9 30.6 0.00 0.00 0.00 18 1015.4
20260503180007 17 300 12.9 25.7 0.00 0.00 0.00 19 1007.1
20260503175504 17 289 16.1 33.8 0.00 0.00 0.00 21 1015.7
20260503175005 17 323 11.3 27.4 0.00 0.00 0.00 20 1015.7
20260503174504 17 288 11.3 27.4 0.00 0.00 0.00 20 1015.7
20260503174006 17 300 14.5 27.4 0.00 0.00 0.00 20 1015.7
20260503173505 18 283 12.9 35.4 0.00 0.00 0.00 22 1015.9
20260503173009 17 267 11.3 35.4 0.00 0.00 0.00 23 1007.5
20260503173006 17 267 12.9 35.4 0.00 0.00 0.00 23 1015.9
20260503172505 17 285 12.9 33.8 0.00 0.00 0.00 20 1016.1
20260503172005 17 283 16.1 30.6 0.00 0.00 0.00 19 1016.1
20260503171507 17 288 20.9 30.6 0.00 0.00 0.00 19 1007.9
20260503171505 17 288 22.5 30.6 0.00 0.00 0.00 19 1016.3
20260503171005 17 281 9.7 29.0 0.00 0.00 0.00 20 1016.2
20260503170505 17 305 17.7 29.0 0.00 0.00 0.00 20 1016.3
20260503151003 15 186 4.8 16.1 0.00 0.00 0.00 27 1016.9
20260503150504 15 244 4.8 14.5 0.00 0.00 0.00 28 1016.9
20260503131006 9 274 3.2 9.7 0.00 0.00 0.00 43 1016.9
20260503130504 8 238 3.2 8.0 0.00 0.00 0.00 46 1016.9
20260503110504 6 207 4.8 11.3 0.00 0.00 0.00 48 1016.0
20260503090505 6 231 3.2 6.4 0.00 0.00 0.00 43 1016.3
20260503090110 6 224 3.2 6.4 0.00 0.00 0.00 44 1009.6
20260503081505 6 216 4.8 11.3 0.00 0.00 0.00 43 1016.3
20260503081502 6 216 4.8 11.3 0.00 0.00 0.00 43 1009.9
20260503081005 6 202 4.8 11.3 0.00 0.00 0.00 43 1016.3
20260503080504 7 238 3.2 11.3 0.00 0.00 0.00 42 1016.4
20260503072505 8 216 4.8 12.9 0.00 0.00 0.00 35 1016.7
20260503072005 8 207 4.8 12.9 0.00 0.00 0.00 34 1016.7
20260503071506 8 232 4.8 14.5 0.00 0.00 0.00 33 1016.7
20260503071503 8 232 3.2 14.5 0.00 0.00 0.00 33 1010.5
20260503071005 9 212 4.8 14.5 0.00 0.00 0.00 33 1016.7
20260503070506 9 214 4.8 17.7 0.00 0.00 0.00 32 1016.7
20260503055006 10 233 11.3 27.4 0.00 0.00 0.00 29 1017.0
20260503054503 10 190 11.3 27.4 0.00 0.00 0.00 29 1011.2
20260503054007 10 185 9.7 22.5 0.00 0.00 0.00 29 1017.1
20260503053505 10 166 9.7 17.7 0.00 0.00 0.00 29 1017.1
20260503053006 10 182 9.7 17.7 0.00 0.00 0.00 29 1011.3
20260503052505 10 215 9.7 22.5 0.00 0.00 0.00 28 1017.1
20260503052006 10 168 12.9 25.7 0.00 0.00 0.00 28 1017.0
20260503051505 10 188 11.3 22.5 0.00 0.00 0.00 29 1017.0
20260503051006 10 194 9.7 25.7 0.00 0.00 0.00 29 1017.1
20260503050505 10 176 11.3 25.7 0.00 0.00 0.00 29 1017.1
20260503050006 10 232 12.9 20.9 0.00 0.00 0.00 29 1017.1
20260503050003 10 232 11.3 20.9 0.00 0.00 0.00 29 1011.5
20260503045505 10 169 11.3 19.3 0.00 0.00 0.00 30 1017.2
20260503044504 9 172 8.0 14.5 0.00 0.00 0.00 31 1011.8
20260503043505 8 197 6.4 14.5 0.00 0.00 0.00 34 1017.4
20260503043003 8 196 6.4 14.5 0.00 0.00 0.00 34 1011.9
20260503041505 8 202 3.2 9.7 0.00 0.00 0.00 35 1017.5
20260503041503 8 202 3.2 9.7 0.00 0.00 0.00 35 1012.0
20260503041006 8 193 3.2 8.0 0.00 0.00 0.00 37 1017.4
20260503040505 8 231 1.6 4.8 0.00 0.00 0.00 37 1017.5
20260503040006 8 217 1.6 6.4 0.00 0.00 0.00 38 1017.5
20260503040004 8 217 0.0 6.4 0.00 0.00 0.00 38 1012.1
20260503035005 10 188 3.2 8.0 0.00 0.00 0.00 32 1017.5
20260503034505 10 183 3.2 8.0 0.00 0.00 0.00 32 1017.4
20260503034503 10 183 3.2 8.0 0.00 0.00 0.00 32 1011.9
20260503034006 10 192 4.8 11.3 0.00 0.00 0.00 31 1017.4
20260503033005 10 165 6.4 12.9 0.00 0.00 0.00 31 1017.4
20260503033003 10 165 4.8 12.9 0.00 0.00 0.00 31 1012.0
20260503032505 10 158 9.7 14.5 0.00 0.00 0.00 30 1017.4
20260503032005 10 187 8.0 12.9 0.00 0.00 0.00 31 1017.3
20260503031504 10 150 8.0 14.5 0.00 0.00 0.00 31 1011.9
20260503030505 11 188 9.7 16.1 0.00 0.00 0.00 31 1017.2
20260503030005 11 152 9.7 16.1 0.00 0.00 0.00 31 1011.9
20260503025505 11 160 9.7 16.1 0.00 0.00 0.00 31 1017.1
20260503025006 11 158 11.3 16.1 0.00 0.00 0.00 31 1017.1
20260503024505 11 155 9.7 16.1 0.00 0.00 0.00 32 1017.1
20260503024503 11 155 8.0 16.1 0.00 0.00 0.00 32 1011.8
20260503024007 11 165 9.7 16.1 0.00 0.00 0.00 32 1017.1
20260503023504 11 168 8.0 12.9 0.00 0.00 0.00 33 1017.0
20260503023005 11 159 8.0 12.9 0.00 0.00 0.00 32 1017.0
20260503023003 11 159 8.0 12.9 0.00 0.00 0.00 32 1011.8
20260503022505 11 152 8.0 14.5 0.00 0.00 0.00 33 1016.9
20260503022006 11 144 8.0 14.5 0.00 0.00 0.00 33 1016.9
20260503021559 12 159 8.0 12.9 0.00 0.00 0.00 32 1011.6
20260503021505 12 150 9.7 12.9 0.00 0.00 0.00 32 1016.9
20260503021503 12 150 8.0 12.9 0.00 0.00 0.00 32 1011.6
20260503021005 12 164 8.0 12.9 0.00 0.00 0.00 31 1016.8
20260503020505 12 162 9.7 16.1 0.00 0.00 0.00 31 1016.8
20260503020006 12 157 9.7 12.9 0.00 0.00 0.00 30 1016.8
20260503020004 12 157 9.7 12.9 0.00 0.00 0.00 30 1011.5
20260503015505 12 163 9.7 16.1 0.00 0.00 0.00 29 1016.7
20260503014505 13 161 11.3 16.1 0.00 0.00 0.00 28 1016.7
20260503014005 13 149 9.7 17.7 0.00 0.00 0.00 28 1016.6
20260503013006 14 176 11.3 17.7 0.00 0.00 0.00 27 1016.6
20260503013004 14 176 11.3 17.7 0.00 0.00 0.00 27 1011.4
20260503012505 15 162 11.3 19.3 0.00 0.00 0.00 25 1016.5
20260503012006 15 155 9.7 16.1 0.00 0.00 0.00 26 1016.5
20260503011506 15 175 9.7 17.7 0.00 0.00 0.00 25 1016.5
20260503011504 15 175 8.0 17.7 0.00 0.00 0.00 25 1011.4
20260503011005 16 171 11.3 17.7 0.00 0.00 0.00 24 1016.5
20260503010505 16 154 12.9 19.3 0.00 0.00 0.00 24 1016.5
20260503010007 16 186 12.9 22.5 0.00 0.00 0.00 23 1011.3
20260503005505 16 165 12.9 22.5 0.00 0.00 0.00 24 1016.5
20260503005002 16 143 9.7 17.7 0.00 0.00 0.00 23 1016.5
20260503004504 17 126 12.9 17.7 0.00 0.00 0.00 22 1016.5
20260503004008 17 138 3.2 6.4 0.00 0.00 0.00 20 1016.5
20260503003505 17 141 4.8 14.5 0.00 0.00 0.00 18 1016.5
20260503003006 17 141 4.8 14.5 0.00 0.00 0.00 19 1016.6
20260503003003 17 141 4.8 14.5 0.00 0.00 0.00 19 1011.6